Thompson, Ohio, United States (44086)
Lat: 41.69N, Lon: 81.05W
Wx Zone: OHZ013
Local Info
Past Weather Observations for Wednesday, March 25, 2015

NOTE: This archive is for the closest National Weather Service station to Thompson. Information may differ from the station used for current weather conditions.

Click here for Long-term Archive

Time Weather Temperature Dewpoint Humidity Pressure Winds Precip Visibility
23:53
Clear
43°F / 6°C 39°F / 4°C 87% 29.98 in
(1015 mb)
Calm - 9SM
22:53
Clear
45°F / 7°C 39°F / 4°C 81% 29.98 in
(1015 mb)
SSW 5.8 mph
(SSW 9 kph)
- 10SM
21:53
Clear
46°F / 8°C 39°F / 4°C 76% 29.98 in
(1015 mb)
S 5.8 mph
(S 9 kph)
- 10SM
20:53
Clear
48°F / 9°C 41°F / 5°C 76% 30.01 in
(1016 mb)
SW 8.1 mph
(SW 13 kph)
- 10SM
19:53
Clear
48°F / 9°C 43°F / 6°C 82% 30.01 in
(1016 mb)
SW 6.9 mph
(SW 11 kph)
- 10SM
18:53
Clear
48°F / 9°C 43°F / 6°C 82% 30.01 in
(1016 mb)
SW 5.8 mph
(SW 9 kph)
- 10SM
17:53
Clear
52°F / 11°C 45°F / 7°C 77% 29.98 in
(1015 mb)
SSW 8.1 mph
(SSW 13 kph)
- 10SM
16:53
Mostly Cloudy
54°F / 12°C 45°F / 7°C 72% 29.98 in
(1015 mb)
WNW 9.2 mph
(WNW 15 kph)
- 10SM
15:53
Overcast
54°F / 12°C 45°F / 7°C 72% 29.98 in
(1015 mb)
W 10.4 mph
(W 17 kph)
- 10SM
14:53
Overcast
52°F / 11°C 46°F / 8°C 82% 29.95 in
(1014 mb)
SW 9.2 mph
(SW 15 kph)
- 10SM
13:53
Overcast
48°F / 9°C 45°F / 7°C 87% 29.92 in
(1013 mb)
SSE 6.9 mph
(SSE 11 kph)
- 8SM
12:53
Overcast
46°F / 8°C 43°F / 6°C 87% 29.92 in
(1013 mb)
S 12.7 mph
(S 20 kph)
- 8SM
11:53
Overcast
45°F / 7°C 41°F / 5°C 87% 29.92 in
(1013 mb)
S 15 mph
(S 24 kph)
0.00 in
(0.00 mm)
8SM
10:53
Overcast
Light Rain
39°F / 4°C 37°F / 3°C 93% 29.95 in
(1014 mb)
SSE 13.8 mph
(SSE 22 kph)
0.02 in
(0.51 mm)
3SM
09:53
Overcast
Light Rain
37°F / 3°C 36°F / 2°C 93% 29.98 in
(1015 mb)
SSE 15 mph
(SSE 24 kph)
0.04 in
(1.02 mm)
4SM
08:53
Overcast
Light Rain
37°F / 3°C 32°F / 0°C 81% 30.01 in
(1016 mb)
SSE 15 mph
(SSE 24 kph)
0.00 in
(0.00 mm)
7SM
08:10
Overcast
Light Rain
37°F / 3°C 30°F / -1°C 75% 30.04 in
(1017 mb)
SSE 15 mph
(SSE 24 kph)
0.00 in
(0.00 mm)
8SM
07:53
Overcast
37°F / 3°C 28°F / -2°C 70% 30.04 in
(1017 mb)
SSE 11.5 mph
(SSE 19 kph)
0.01 in
(0.25 mm)
10SM
06:53
Overcast
Light Rain
36°F / 2°C 28°F / -2°C 75% 30.06 in
(1018 mb)
SSE 11.5 mph
(SSE 19 kph)
0.00 in
(0.00 mm)
8SM
05:53
Mostly Cloudy
36°F / 2°C 25°F / -4°C 65% 30.06 in
(1018 mb)
SE 11.5 mph
(SE 19 kph)
- 10SM
04:53
Clear
34°F / 1°C 25°F / -4°C 70% 30.09 in
(1019 mb)
SE 9.2 mph
(SE 15 kph)
- 10SM
03:53
Clear
34°F / 1°C 23°F / -5°C 65% 30.12 in
(1020 mb)
SE 10.4 mph
(SE 17 kph)
- 10SM
02:53
Clear
34°F / 1°C 21°F / -6°C 60% 30.12 in
(1020 mb)
SE 8.1 mph
(SE 13 kph)
- 10SM
01:53
Clear
34°F / 1°C 21°F / -6°C 60% 30.18 in
(1022 mb)
SE 8.1 mph
(SE 13 kph)
- 10SM
00:53
Clear
30°F / -1°C 19°F / -7°C 64% 30.21 in
(1023 mb)
SE 5.8 mph
(SE 9 kph)
- 10SM
Time Weather Temperature Dewpoint Humidity Pressure Winds Precip Visibility


Weather for websites

WeatherForYou.com, LLC is not responsible for any damages or problems caused by this service. Current weather conditions are obtained from the closest station including government and personal stations which may have varying degrees of accuracy. Weather forecasts are derived from the NOAA NDFD. Like all things, this site belongs to Jesus Christ... He just trusts me to maintain it. If you have any questions or comments email webmaster@weatherforyou.com

Copyright © 2015, WeatherForYou.com LLC. All rights reserved.